www.pogodaiklimat.ru

Погода и климат >> Архив погоды >> Индонезия >> Панкалпинанг


ПОГОДА в Панкалпинанге

  • Прогноз погоды в Панкалпинанге
  • Монитор погоды в Панкалпинанге

АРХИВ ПОГОДЫ в Панкалпинанге

Время (UTC), дата Ветер
(напр.,м/с)
 
Видим.   Явления Облачность Т
(С)
Тd
(С)
f
(%)
Тe
(С)
Тes
(С)
Комфортность P
(гПа)
Po
(гПа)
Тmin
(С)
Tmax
(С)
R
(мм)
R24
(мм)
S
(см)
00 15.09 ЮВ 3 8000 м 9/3 480 м
[Cu hum As trans Cs]
+24.0 +21.9 88 +31 +31 очень
душно
1011.6 1007.5 +23.8
03 15.09 Ю 5 10 км 9/4 480 м
[Cu med, cong Ac trans Cs]
+29.8 +21.1 60 +37 +41 очень
душно
1012.4 1008.3
06 15.09 В 6 10 км 9/4 480 м
[Cu med, cong Ac trans Cs]
+31.2 +21.0 55 +39 +42 очень
душно
1009.7 1005.6
09 15.09 В 7 10 км 10/4 480 м
[Cu hum Ac As Ci sp]
+29.9 +21.4 60 +38 +38 очень
душно
1007.8 1003.7
12 15.09 ЮВ 3 7000 м 10/4 480 м
[Cu hum As trans Cs]
+28.1 +20.7 64 +35 +35 очень
душно
1009.1 1005.0 +32.2
15 15.09 ЮВ 4 1700 м 10/4 480 м
[Cu hum As trans Cs]
+25.4 +21.6 80 +33 +33 очень
душно
1010.5 1006.5
18 15.09 ЮВ 4 7000 м 10/4 480 м
[Cu hum As trans Cs]
+24.8 +22.0 84 +32 +32 очень
душно
1009.7 1005.6
21 15.09 ЮВ 3 7000 м 10/4 480 м
[Cu hum As trans Cs]
+25.0 +22.1 84 +32 +32 очень
душно
1009.1 1005.0
00 16.09 В 4 9000 м 6/4 480 м
[Cu med, cong Ac trans Cs]
+26.6 +22.6 79 +35 +36 очень
душно
1011.0 1006.4 +23.8
03 16.09 В 6 10 км 8/4 480 м
[Cu med, cong Ac trans Cs]
+29.4 +22.4 66 +38 +41 очень
душно
1011.9 1007.3
06 16.09 ЮВ 7 10 км дым 10/4 480 м
[Cu med, cong Ac trans Cs]
+30.8 +20.8 55 +38 +40 очень
душно
1009.1 1005.3
09 16.09 В 5 5000 м дым 9/3 480 м
[Cu med, cong Ac trans Cs]
+30.2 +21.3 59 +38 +39 очень
душно
1007.9 1003.8
12 16.09 В 4 7000 м 9/4 480 м
[Cu hum Ac As Cs]
+28.2 +23.5 76 +38 +38 очень
душно
1009.3 1005.2 +31.4
15 16.09 ЮВ 4 7000 м 9/4 480 м
[Cu hum As trans Cs]
+26.2 +22.9 82 +35 +35 очень
душно
1010.2 1006.1
18 16.09 ЮВ 3 7000 м 9/4 480 м
[Cu hum As trans Cs]
+25.1 +22.6 86 +33 +33 очень
душно
1009.6 1005.5
21 16.09 ЮВ 2 7000 м 9/4 480 м
[Cu hum As trans Cs]
+25.6 +22.9 85 +34 +34 очень
душно
1009.6 1005.5
00 17.09 Ю 2 5000 м 8/3 480 м
[Cu hum Ac trans Cs]
+26.0 +23.1 84 +35 +36 очень
душно
1011.6 1007.5 +23.9
03 17.09 ЮВ 6 3000 м дым 9/3 480 м
[Cu hum Ac trans Cs]
+30.1 +23.6 68 +41 +44 опасность
перегрева
1012.2 1008.1
06 17.09 В 6 3000 м дым 9/3 480 м
[Cu hum Ac trans Cs]
+30.7 +22.9 63 +41 +44 опасность
перегрева
1009.8 1005.7
09 17.09 В 6 3000 м дым 10/1 480 м
[Cu hum Ac trans Cs]
+29.7 +24.3 73 +42 +43 опасность
перегрева
1008.7 1004.2
12 17.09 ЮВ 3 4000 м дым 10/1 480 м
[Cu hum Ac trans Cs]
+28.3 +25.0 82 +41 +41 опасность
перегрева
1010.3 1005.8 +30.9
15 17.09 Ю 3 6000 м 9/4 480 м
[Cu hum Ac trans Cs]
+26.2 +23.0 83 +35 +35 очень
душно
1012.1 1008.0
18 17.09 Ю 3 5000 м дым 9/4 480 м
[Cu hum Ac trans Cs]
+25.0 +22.7 87 +33 +33 очень
душно
1011.6 1007.5
21 17.09 Ю 3 3000 м дым 9/4 480 м
[Cu hum Ac trans Cs]
+24.0 +22.2 90 +31 +31 очень
душно
1011.8 1007.7
00 18.09 штиль 0 50 км дым ?/? +24.3 +22.4 89 +32 +32 очень
душно
1012.7 1007.9 +23.0
03 18.09 ЮВ 6 3000 м дым 8/3 480 м
[Cu hum As trans Cs]
+29.9 +22.7 65 +39 +42 очень
душно
1012.7 1008.7
06 18.09 ЮВ 9 10 км 6/1 480 м
[Cu hum As trans Ci fib]
+31.9 +21.3 54 +40 +42 очень
душно
1010.3 1006.2
09 18.09 ЮВ 8 10 км 9/3 480 м
[Cu hum Ac trans Cs]
+31.8 +21.1 53 +39 +40 очень
душно
1009.5 1005.4
12 18.09 Ю 3 8000 м 10/3 480 м
[Cu hum Ac trans Cs]
+28.4 +21.9 68 +37 +37 очень
душно
1010.4 1006.3 +33.2
15 18.09 Ю 3 7000 м 10/1 480 м
[Cu hum Ac trans Cs]
+26.1 +23.0 83 +35 +35 очень
душно
1012.2 1007.6
18 18.09 Ю 3 7000 м 10/1 480 м
[Cu hum Ac trans Cs]
+24.5 +22.7 90 +32 +32 очень
душно
1011.3 1006.7
21 18.09 Ю 2 7000 м 10/3 480 м
[Cu hum Ac trans Cs]
+24.3 +22.7 91 +32 +32 очень
душно
1011.4 1006.8
00 19.09 ЮВ 5 7000 м 4/4 480 м
[Cu hum As trans Cs]
+25.9 +23.2 85 +35 +35 очень
душно
1012.1 1008.0 +24.1
03 19.09 ЮВ 8 10 км 9/5 480 м
[Cu hum As trans Ci sp]
+30.1 +23.2 67 +41 +42 опасность
перегрева
1012.5 1008.4
06 19.09 В 7 10 км 6/5 480 м
[Cu hum As trans Ci ing]
+31.5 +24.2 65 +43 +46 опасность
перегрева
1009.9 1005.8
09 19.09 ЮВ 7 10 км 5/1 480 м
[Cu hum Cs]
+31.8 +20.5 51 +39 +40 очень
душно
1009.0 1004.9
12 19.09 ЮВ 4 9000 м 6/1 480 м
[Sc Ac trans Ci fib]
+28.8 +20.1 59 +35 +35 очень
душно
1010.8 1006.7 +32.4
15 19.09 Ю 4 8000 м 8/3 480 м
[Cu hum Ac trans Cs]
+25.6 +21.5 78 +33 +33 очень
душно
1011.7 1007.6
18 19.09 ЮЗ 1 7000 м 9/3 480 м
[Cu hum Ac trans Cs]
+24.1 +22.2 89 +31 +31 очень
душно
1010.9 1006.8
21 19.09 ЮВ 3 6000 м 9/3 480 м
[Cu hum Ac trans Cs]
+25.1 +22.4 85 +33 +33 очень
душно
1010.4 1006.3
00 20.09 В 3 7000 м 10/1 480 м
[Cu hum Ac trans Cs]
+26.2 +22.3 79 +34 +35 очень
душно
1011.6 1007.6 +23.9
03 20.09 В 6 10 км 10/1 480 м
[Cu hum Ac trans Cs]
+29.1 +22.6 68 +38 +42 очень
душно
1012.8 1008.9
06 20.09 В 7 10 км 9/1 480 м
[Cu hum Ac trans Cs]
+30.9 +22.8 62 +41 +43 опасность
перегрева
1010.5 1006.6
09 20.09 В 6 10 км 5/1 480 м
[Cu hum Cs]
+30.8 +22.7 62 +40 +42 очень
душно
1008.9 1004.8
12 20.09 В 4 9000 м 6/3 480 м
[Cu hum As trans Cs]
+28.3 +24.2 78 +39 +39 очень
душно
1010.4 1006.3 +32.6
15 20.09 ЮВ 3 8000 м 6/1 480 м
[Sc Ac trans Ci fib]
+25.4 +21.8 80 +33 +33 очень
душно
1011.7 1007.6
18 20.09 Ю 3 8000 м 6/1 480 м
[Sc Ac trans Ci fib]
+24.6 +22.1 86 +32 +32 очень
душно
1010.5 1006.4
21 20.09 Ю 3 8000 м 6/1 480 м
[Sc Ac trans Ci fib]
+23.7 +21.8 89 +30 +30 очень
душно
1010.0 1005.9
00 21.09 Ю 2 8000 м 6/3 480 м
[Cu hum As trans Cs]
+25.0 +23.0 89 +33 +34 очень
душно
1011.5 1007.4 +23.0
03 21.09 ЮВ 6 10 км 6/3 480 м
[Cu hum As trans Cs]
+30.8 +21.6 58 +39 +42 очень
душно
1011.9 1007.8
06 21.09 В 7 10 км 6/3 480 м
[Cu hum As trans Cs]
+31.8 +21.1 53 +39 +42 очень
душно
1009.2 1005.1
09 21.09 В 7 10 км 6/3 480 м
[Cu hum As trans Cs]
+30.2 +22.6 64 +40 +40 очень
душно
1008.2 1004.1
12 21.09 Ю 3 7000 м 6/3 480 м
[Cu hum As trans Cs]
+28.0 +22.2 71 +37 +37 очень
душно
1009.7 1005.6 +32.0
15 21.09 Ю 3 5000 м дым 6/3 480 м
[Cu hum As trans Cs]
+25.3 +22.0 82 +33 +33 очень
душно
1011.4 1007.3
18 21.09 Ю 3 5000 м дым 6/3 480 м
[Cu hum As trans Cs]
+24.6 +21.9 85 +32 +32 очень
душно
1010.3 1006.2
21 21.09 Ю 2 5000 м дым 6/3 480 м
[Cu hum As trans Cs]
+24.1 +21.9 88 +31 +31 очень
душно
1010.2 1006.1

 

Местоположение метеостанции Панкалпинанг (Индонезия): широта -2.17 долгота 106.13 высота над уровнем моря 33 м.

В архиве по умолчанию представлена погода в Панкалпинанге за последнюю неделю. Архивные данные за месяц целиком и за предыдущие месяцы, начиная с января 2011 года, Вы можете получить, выбрав интересующий диапазон дат из раскрывающегося списка и нажав кнопку "Ввод!".


*Определитесь, кто Вы:
робот инопланетянин человек

Внимание! Время в таблицах - всемирное. Для получения местного времени необходимо прибавить поправку, которая равна 7 ч.

Смотрите также архив погоды в соседних городах и на ближайших метеорологических станциях:

Погода в Палембанге (Индонезия) (178 км)
Погода в Танджунгпандане (Индонезия) (191 км)
Погода в Аэропорту Дабо (Индонезия) (255 км)
Погода в Джамби (Индонезия) (282 км)
Погода в Танджунгкаранге (Индонезия) (343 км)
Погода в Танджунгпинанге (Индонезия) (387 км)
Погода в Кетапанге (Индонезия) (427 км)
Погода в Понтианаке (Индонезия) (427 км)
Погода в Аэропорту Ханга Надима (Индонезия) (429 км)
Погода в Серанге (Индонезия) (439 км)

Пояснения к столбцам:

Ветер - указаны скорость ветра в м/с - средняя за 10 мин, порывы в срок и между сроками (в фигурных скобках) и направление, откуда дует ветер: С - северный, СВ - северо-восточный, В - восточный, ЮВ - юго-восточный, Ю - южный, ЮЗ - юго-западный, З - западный, СЗ - северо-западный.
Видимость - горизонтальная дальность видимости в метрах или километрах. При видимости от 1 до 10 км при отсутствии осадков обычно наблюдается дымка, при ухудшении видимости до 1 км и менее - туман. В сухую погоду видимость может ухудшаться дымом, пылью или мглою.
Явления - указаны атмосферные явления, наблюдавшиеся в срок или в последний час перед сроком; фигурными скобками обозначены явления, наблюдавшиеся между сроками (за 1-3 часа до срока); квадратными скобками обозначены град или гололедные отложения с указанием их диаметра в мм.
Облачность - указаны через наклонную черту общая и нижняя облачность в баллах и высота нижней границы облаков в метрах; квадратными скобками обозначены формы облаков: Ci - перистые, Cs - перисто-слоистые, Cc - перисто-кучевые, Ac - высококучевые, As - высокослоистые, Sc - слоисто-кучевые, Ns - слоисто-дождевые, Cu - кучевые, Cb - кучево-дождевые. Подробнее классификацию облаков см. в Атласе облаков (PDF).
T - Температура воздуха - температура, измеренная на высоте 2 м над землей.
Td - Температура точки росы - температура, при понижении до которой содержащийся в воздухе водяной пар достигнет насыщения.
f - Относительная влажность воздуха - влажноcть воздуха, измеренная на высоте 2 м над землей.
Te - Эффективная температура - температура, которую ощущает одетый по сезону человек в тени. Характеристика душности погоды. При расчете учитывается влияние влажности воздуха и скорости ветра на теплоощущения человека.
Tes - Эффективная температура на солнце - температура, которую ощущает человек, с поправкой на солнечный нагрев. Характеристика знойности погоды. Зависит от высоты солнца над горизонтом, облачности и скорости ветра. Ночью, в пасмурную погоду, а также при ветре 12 м/с и более поправка равна нулю.
P - Атмосферное давление - приведенное к уровню моря атмосферное давление.
Po - Атмосферное давление - измеренное на уровне метеостанции атмосферное давление.
Tmin - Минимальная температура - минимум температуры воздуха на высоте 2 м над землей.
Tmax - Максимальная температура - максимум температуры воздуха на высоте 2 м над землей.
R - Количество осадков - Количество выпавших осадков за период времени, мм. При наведении курсора мыши на число - период времени, за который выпало указанное количество осадков.
R24 - Количество осадков - Количество выпавших осадков за 24 часа, мм.
S - Снежный покров - Высота снежного покрова, см. При наведении курсора мыши на число - состояние снежного покрова и степень покрытия местности в баллах.